Skip Page Navigation
NASA JPL Caltech
NASA Logo - Jet Propulsion Laboratory + View the NASA Portal
+ Center for Near-Earth Object Studies
JPL Home Earth Solar System Stars & Galaxies Technology
JPL Solar System Dynamics
BODIES ORBITS EPHEMERIDES TOOLS PHYSICAL DATA DISCOVERY FAQ SITE MAP
IMPORTANT: The SSD Announcement email list is now available. Major changes are coming in the near future, including possible hostname and/or URL changes. To be notified of such changes, subscribe to this email list.

Please visit this page for more details.


JPL Small-Body Database Browser
Search: [ help ]  
359515 (2010 RN51)
Classification: Main-belt Asteroid          SPK-ID: 2359515
Ephemeris | Orbit Diagram | Orbital Elements | Mission Design | Physical Parameters | Discovery Circumstances | Close-Approach Data ]

[ show orbit diagram ]
Orbital Elements at Epoch 2459000.5 (2020-May-31.0) TDB
Reference: JPL 18 (heliocentric ecliptic J2000)
 Element Value Uncertainty (1-sigma)   Units 
e .1476149483943662 4.5847e-08  
a 2.682603435075351 3.5448e-08 au
q 2.286611067444153 1.1608e-07 au
i 12.46596111924425 6.7352e-06 deg
node 11.43929841161853 2.2804e-05 deg
peri 254.0093289534749 3.8607e-05 deg
M 163.165509851118 3.8246e-05 deg
tp 2458273.123940146025
(2018-Jun-03.62394015)
0.00016159 TDB
period 1604.845177062011
4.39
3.181e-05
8.709e-08
d
yr
n .2243207040438952 4.4463e-09 deg/d
Q 3.078595802706548 4.0681e-08 au
  Orbit Determination Parameters
   # obs. used (total)      234  
   data-arc span      7146 days (19.56 yr)  
   first obs. used      2000-04-26  
   last obs. used      2019-11-19  
   planetary ephem.      DE431  
   SB-pert. ephem.      SB431-N16  
   condition code      0  
   norm. resid. RMS      .55514  
   source      ORB  
   producer      Otto Matic  
   solution date      2019-Dec-14 20:31:38  

Additional Information
 Earth MOID = 1.30936 au 
 Jupiter MOID = 2.09999 au 
 T_jup = 3.326 
[ show covariance matrix ]

Ephemeris | Orbit Diagram | Orbital Elements | Mission Design | Physical Parameters | Discovery Circumstances | Close-Approach Data ]

Physical Parameter Table
Parameter Symbol Value Units Sigma Reference Notes
absolute magnitude H 16.1   n/a MPO413359  

359515 (2010 RN51)          Discovered 2004-Mar-10 by NEAT at Palomar
Reference: 20130327/Numbers.arcLast Updated: 2013-03-29

[ show close-approach data ]
Ephemeris | Orbit Diagram | Orbital Elements | Mission Design | Physical Parameters | Discovery Circumstances | Close-Approach Data ]
ABOUT SSD CREDITS/AWARDS PRIVACY/COPYRIGHT GLOSSARY LINKS
FirstGov 2020-May-29 08:41 UT
(server date/time)  
NASA Home Page
Site Manager:   Ryan S. Park
Webmaster  Alan B. Chamberlin